Location: *
(58.4167°N, 22.5000°E)
Time: 08:51:07
(UTC+00:00)

Cosmos 1328 - Pass Details

Date: 22 September 2019
Orbit: 532 x 552 km, 82.5° (Epoch: 19 October)

Event Time Altitude Azimuth Distance (km) Brightness Sun altitude
Rises 19:11:41 0° 349° (N) 2,747 8.1 -20.4°
Reaches altitude 10° 19:13:57 10° 356° (N) 1,848 7.0 -20.7°
Enters shadow 19:17:42 43° 62° (ENE) 788 4.4 -21.1°
